Location: Makakahi
(40.6833°S, 175.6000°E)
Time: 22:50:07
(UTC+00:00)

DMSP B5D2-8 - Visible Passes

Search period start: 13 January 2026 00:00
Search period end: 23 January 2026 00:00
Orbit: 831 x 840 km, 98.8° (Epoch: 13 January)

Date Brightness Start Highest point End Pass type
(mag) Time Alt. Az. Time Alt. Az. Time Alt. Az.
13 Jan 8.1 08:50:36 10° SSW 08:52:53 13° WSW 08:55:10 10° W visible
14 Jan 7.8 08:33:23 10° SSW 08:36:53 17° WSW 08:40:21 10° W visible
15 Jan 7.5 08:16:34 10° SSW 08:20:49 24° WSW 08:25:05 10° WNW visible
15 Jan 8.4 16:23:31 10° ESE 16:25:12 11° ESE 16:26:52 10° SE visible
19 Jan 8.2 08:53:44 10° SW 08:55:43 12° WSW 08:57:43 10° WSW visible
20 Jan 7.8 08:36:24 10° SSW 08:39:44 17° WSW 08:43:03 10° W visible
21 Jan 7.6 08:19:32 10° SSW 08:23:41 22° WSW 08:27:49 10° WNW visible
21 Jan 8.3 16:26:00 10° E 16:28:02 12° ESE 16:30:04 10° SE visible
